Flag for Germany

Past Weather in Wesseling, North Rhine-Westphalia, Germany — Yesterday and Last 2 Weeks

Now
54 °F

Light rain. Clear.


Feels Like: 52 °F
Forecast: 67 / 55 °F
Wind: 7 mph from Southeast

Location: Koeln / Bonn
Current Time: Oct 21, 2020 at 1:59:18 am
Latest Report: Oct 21, 2020 at 1:20 am
Visibility: N/A
Pressure29.77 "Hg
Humidity: 94%
Dew Point: 52 °F
Location of WesselingLocation

Past Weather in Wesseling — Graph

°F

Wesseling Temperature Yesterday

Maximum temperature yesterday: 55 °F (at 3:20 pm)
Minimum temperature yesterday: 46 °F (at 12:20 am)
Average temperature yesterday: 51 °F

High & Low Weather Summary for the Past Weeks

 TemperatureHumidityPressure
High63 °F (Oct 6, 3:20 pm)100% (Oct 9, 4:20 am)30.21 "Hg (Oct 9, 4:20 am)
Low37 °F (Oct 14, 3:20 am)54% (Oct 10, 4:50 pm)29.50 "Hg (Oct 6, 3:20 pm)
Average50 °F84%30.02 "Hg
* Reported Oct 6 12:20 am — Oct 21 12:20 am, Wesseling. Weather by CustomWeather, © 2020

Note: Actual official high and low records may vary slightly from our data, if they occured in-between our weather recording intervals... More about our weather records

Wesseling Weather History for the Previous 24 Hours

Scroll right to see more
 ConditionsComfort  
Time TempWeatherWind HumidityBarometerVisibility
12:20 am
Wed, Oct 21
54 °FLight rain. Passing clouds.8 mph94%29.80 "HgN/A
11:50 pm
Tue, Oct 20
54 °FLight rain. Passing clouds.7 mph88%29.80 "HgN/A
11:20 pm54 °FLight rain. Clear.8 mph88%29.80 "HgN/A
10:50 pm54 °FPassing clouds.7 mph88%29.80 "HgN/A
10:20 pm54 °FPassing clouds.8 mph88%29.80 "HgN/A
9:50 pm54 °FLight rain. Passing clouds.7 mph88%29.83 "HgN/A
9:20 pm54 °FLight rain. Passing clouds.10 mph88%29.83 "HgN/A
8:50 pm54 °FLight rain. Passing clouds.10 mph88%29.83 "HgN/A
7:50 pm54 °FLight rain. Passing clouds.13 mph88%29.86 "HgN/A
7:20 pm54 °FLight rain. Passing clouds.9 mph88%29.86 "HgN/A
6:50 pm54 °FLight rain. Passing clouds.10 mph88%29.86 "HgN/A
6:20 pm54 °FLight rain. Clear.9 mph88%29.86 "HgN/A
5:50 pm54 °FLight rain. Passing clouds.9 mph88%29.86 "HgN/A
5:20 pm54 °FLight rain. Clear.10 mph88%29.86 "HgN/A
4:50 pm54 °FLight rain. Passing clouds.10 mph88%29.86 "HgN/A
4:20 pm54 °FLight rain. Clear.10 mph88%29.86 "HgN/A
3:20 pm55 °FPassing clouds.9 mph77%29.86 "HgN/A
2:50 pm54 °FLight rain. Passing clouds.9 mph77%29.86 "HgN/A
2:20 pm54 °FLight rain. Passing clouds.8 mph77%29.86 "HgN/A
1:50 pm54 °FLight rain. Passing clouds.14 mph77%29.86 "HgN/A
12:50 pm54 °FPassing clouds.12 mph82%29.89 "HgN/A
12:20 pm52 °FLight rain. Passing clouds.5 mph88%29.89 "HgN/A
11:50 am52 °FLight rain. Clear.6 mph82%29.89 "HgN/A
11:20 am52 °FSunny.8 mph77%29.86 "Hg10 mi
10:50 am52 °FPassing clouds.8 mph77%29.86 "HgN/A
10:20 am50 °FPassing clouds.13 mph76%29.86 "HgN/A
9:50 am50 °FPassing clouds.10 mph76%29.86 "HgN/A
9:20 am48 °FPassing clouds.13 mph76%29.86 "HgN/A
8:50 am48 °FSunny.12 mph76%29.86 "Hg10 mi
8:20 am48 °FSunny.14 mph76%29.86 "Hg10 mi
7:50 am48 °FPassing clouds.12 mph71%29.86 "HgN/A
7:20 am46 °FClear.10 mph76%29.89 "Hg10 mi
6:50 am48 °FClear.10 mph71%29.86 "Hg10 mi
6:20 am46 °FClear.12 mph76%29.89 "Hg10 mi
5:50 am46 °FClear.12 mph76%29.89 "Hg10 mi
5:20 am46 °FPassing clouds.10 mph76%29.92 "HgN/A
4:50 am48 °FPassing clouds.12 mph71%29.92 "HgN/A
4:20 am46 °FPassing clouds.9 mph76%29.92 "HgN/A
3:50 am46 °FPassing clouds.12 mph76%29.92 "HgN/A
3:20 am46 °FPassing clouds.10 mph71%29.95 "HgN/A
2:50 am46 °FPassing clouds.10 mph71%29.95 "HgN/A
2:20 am46 °FPassing clouds.9 mph71%29.98 "HgN/A
1:50 am46 °FPassing clouds.9 mph71%29.98 "HgN/A
1:20 am46 °FPassing clouds.8 mph76%29.98 "HgN/A
Weather by CustomWeather, © 2020

See weather overview